Location: Albany
(35.0000°S, 118.0000°E)
Time: 21:04:24
(UTC-04:00)

Atlas Centaur 2 - Visible Passes

Search period start: 25 October 2014 00:00
Search period end: 03 November 2014 23:00
Orbit: 460 x 1327 km, 30.4° (Epoch: 24 October)

Date Brightness Start Highest point End Pass type
(mag) Time Alt. Az. Time Alt. Az. Time Alt. Az.
25 Oct 1.9 07:46:19 10° WNW 07:50:45 42° N 07:52:02 32° NE visible
26 Oct 1.9 07:45:12 10° WNW 07:49:50 45° N 07:51:24 30° NE visible
27 Oct 1.9 07:44:06 10° WNW 07:48:54 47° N 07:50:42 29° NE visible
28 Oct 2.0 07:43:01 10° WNW 07:47:58 47° N 07:49:58 27° NE visible
29 Oct 2.2 07:41:57 10° W 07:47:00 45° N 07:49:11 25° NE visible
30 Oct 2.4 07:40:53 10° W 07:46:01 42° NNW 07:48:24 23° NE visible
31 Oct 2.6 07:39:49 10° W 07:45:00 38° NNW 07:47:35 21° NE visible
01 Nov 2.9 07:38:47 10° W 07:43:56 34° NNW 07:46:47 18° NE visible
02 Nov 3.2 06:37:47 10° W 06:42:50 29° NNW 06:45:58 15° NNE visible
03 Nov 3.5 06:36:51 10° W 06:41:41 25° NNW 06:45:10 12° NNE visible
